STARLINK-4160, 53030

Orbit data source: Space-Track

STARLINK-4160, 53030 is a payload satellite owned by SpaceX/Seattle (US) in LEO that was launched on Thu, 07 Jul 2022 UTC via an FALCON 9 launch vehicle from the Air Force Eastern Test Range (AFETR). Payload-class satellites include a variety of spacecraft equipped with specific instruments for various scientific and technological missions. These include communications satellites like Starlink; space stations such as the ISS; scientific satellites like the Hubble; Earth observation satellites from companies like Planet Labs, Umbra, and HawkEye 360; GPS; miniature CubeSats for education and research; and military/defense satellites.

Loading next visibility...
Identifier
53030, 2022-076AW
Orbit
LEO
Country
Flag of USUS
Related business
Manufacturer
SpaceX/Seattle
Mission
Operational Commercial Communications
Bus & Motor
STARLINK, Unknown motor
Mass
297 kg wet, ~275 kg dry
Launch date (UTC)
2022-07-07 (3 years ago)
Launch vehicle
FALCON 9
Launch site
Air Force Eastern Test Range (AFETR)
Object type
Payload
Rocket body
Debris
Shape & HBR
Box + 1 Pan, 10.1 m
Radar Cross Section
13.562 m², Large (>1 m²)

Expand to show TLE details & history
Last TLE update: 17 hours ago

TLE from 17 hours ago
0 STARLINK-4160
1 53030U 22076AW  25340.73710962  .00000128  00000-0  26119-4 0  9991
2 53030  53.2172 141.5904 0001312  89.6401 270.4741 15.08850149188959
Epoch: 2025-12-06T17:41Z
TLE epoch observation values (Epoch: 2025-12-06T17:41:26.271Z)
Latitude
-0.00005°
Longitude
160.47035°
Altitude
540.602 km
Speed
7.593 km/s
True Right ascension
09h 26m 21s
True Declination
0° 00' 00"
Sunlit
Object was in daylight at epoch
Visualization orbit readout
Latitude
Unknown
Longitude
Unknown
Altitude
Unknown
Speed
Unknown
Apparent Right ascension
Unknown
Apparent Declination
Unknown
Sunlit
N/A
Visualization observer readout
Local Sidereal Time
08:33:40
Azimuth
Unknown
Elevation
Unknown
Doppler factor
Unknown
Orbital elements
Apogee altitude
540.865 km
Perigee altitude
539.05 km
Semi-major axis
6,918.094 km
Eccentricity
0.00013
Inclination
53.2172°
RAAN
141.5904°
Arg. of periapsis
89.6401°
True anomaly
270.45907°
Mean anomaly
270.4741°
Eccentric anomaly
270.46658°
Mean motion
3.77193 °/min
Orbital period
95.44 mins
BSTAR
0.000026119
Loading maneuver chart data...
Computing Atmospheric mass density...
Loading historical data...
Loading historical data...
Loading historical data...
Loading historical data...
Loading historical data...
Loading historical data...
Loading historical data...

Documentation

Showing up to 5 results
|